Preview of NWS' New Version of Forecast
This preview is not operational and should not be used for support decisions.

Regional Weather Roundup (RWR)

Issued by National Weather Service (NWS)

                            
000
ASUS45 KCYS 260510
RWRWY 

WYOMING REGIONAL WEATHER ROUNDUP
NATIONAL WEATHER SERVICE CHEYENNE WY
1100 PM MDT SUN AUG 25 2019

NOTE:  "FAIR" INDICATES FEW OR NO CLOUDS BELOW 12,000 FEET
WITH NO SIGNIFICANT WEATHER AND/OR OBSTRUCTIONS TO VISIBILITY.

WYZ001-260600-
YELLOWSTONE NATIONAL PARK
  
CITY           SKY/WX    TMP DP  RH WIND       PRES   REMARKS
LK YELLOWSTONE   N/A     51  33  50 CALM      30.22R                  
W YELLOWSTONE  NOT AVBL                                               

$$
WYZ002>013-054>058-071-098>099-260600-
NORTHERN WYOMING
  
CITY           SKY/WX    TMP DP  RH WIND       PRES   REMARKS
JACKSON        FAIR      60  28  29 S12       30.11R                  
CODY           MOCLDY    56  45  66 NW13G23   30.10R                  
GREYBULL       FAIR      66  42  41 NW30G48   29.92R                  
WORLAND        FAIR      65  44  46 NW8       29.96R                  
SHERIDAN       FAIR      62  47  57 NW30G36   30.03R                  
BUFFALO        FAIR      60  47  61 N13       30.04R                  
GILLETTE       FAIR      54  53  97 SW8       29.96R                  
HULETT         FAIR      55  52  88 CALM      29.94R                  
NEWCASTLE      LGT RAIN  61  48  63 CALM      29.91R                  

$$
WYZ014>020-022>026-101>103-260600-
CENTRAL WYOMING
  
CITY           SKY/WX    TMP DP  RH WIND       PRES   REMARKS
BIG PINEY      FAIR      57  25  29 NW9       30.15S                  
PINEDALE       FAIR      50  28  43 NW3       30.17R                  
DUBOIS         FAIR      55  23  28 W5        30.12R                  
LANDER         FAIR      62  40  44 SE7       30.05R                  
RIVERTON       FAIR      62  41  46 E9        30.02R                  
CASPER         FAIR      57  47  69 NE6       30.05R                  
DOUGLAS        FAIR      60  48  64 NW10      30.00R                  

$$
WYZ021-027>030-104>119-260600-
SOUTHERN WYOMING
  
CITY           SKY/WX    TMP DP  RH WIND       PRES   REMARKS
EVANSTON       FAIR      64  34  32 NW12      30.19R                  
KEMMERER       FAIR      63  28  27 W14G23    30.18S                  
ROCK SPRINGS   FAIR      65  33  30 W15       30.12S                  
RAWLINS        FAIR      70  29  21 W20G31    30.07S                  
SARATOGA       FAIR      61  32  33 W8        30.13R                  
LARAMIE        FAIR      69  30  23 W21G29    30.08S                  
CHEYENNE       FAIR      73  32  22 NW10      29.99R                  
TORRINGTON     FAIR      66  59  78 N8        29.78R                  
PINE BLUFFS    FAIR      64  50  59 W7        29.89S                  

$$
  

000
ASUS45 KCYS 260510
RWRWY 

WYOMING REGIONAL WEATHER ROUNDUP
NATIONAL WEATHER SERVICE CHEYENNE WY
1100 PM MDT SUN AUG 25 2019

NOTE:  "FAIR" INDICATES FEW OR NO CLOUDS BELOW 12,000 FEET
WITH NO SIGNIFICANT WEATHER AND/OR OBSTRUCTIONS TO VISIBILITY.

WYZ001-260600-
...YELLOWSTONE NATIONAL PARK...
  
CITY           SKY/WX    TMP DP  RH WIND       PRES   REMARKS
LK YELLOWSTONE   N/A     51  33  50 CALM      30.22R                  
W YELLOWSTONE  NOT AVBL                                               

$$
WYZ002>013-054>058-071-098>099-260600-
...NORTHERN WYOMING...
  
CITY           SKY/WX    TMP DP  RH WIND       PRES   REMARKS
JACKSON        CLEAR     60  28  29 S12       30.11R                  
CODY           MOCLDY    56  45  66 NW13G23   30.10R                  
GREYBULL       PTCLDY    66  42  41 NW30G48   29.92R                  
WORLAND        PTCLDY    65  44  46 NW8       29.96R                  
SHERIDAN       CLOUDY    62  47  57 NW30G36   30.03R                  
BUFFALO        MOCLDY    60  47  61 N13       30.04R                  
GILLETTE       PTCLDY    54  53  97 SW8       29.96R                  
HULETT         FAIR      55  52  88 CALM      29.94R                  
NEWCASTLE      LGT RAIN  61  48  63 CALM      29.91R                  

$$
WYZ014>020-022>026-101>103-260600-
...CENTRAL WYOMING...
  
CITY           SKY/WX    TMP DP  RH WIND       PRES   REMARKS
BIG PINEY      CLEAR     57  25  29 NW9       30.15S                  
PINEDALE       CLEAR     50  28  43 NW3       30.17R                  
DUBOIS         FAIR      55  23  28 W5        30.12R                  
LANDER         CLEAR     62  40  44 SE7       30.05R                  
RIVERTON       CLEAR     62  41  46 E9        30.02R                  
CASPER         CLEAR     57  47  69 NE6       30.05R                  
DOUGLAS        PTCLDY    60  48  64 NW10      30.00R                  

$$
WYZ021-027>030-104>119-260600-
...SOUTHERN WYOMING...
  
CITY           SKY/WX    TMP DP  RH WIND       PRES   REMARKS
EVANSTON       CLEAR     64  34  32 NW12      30.19R                  
KEMMERER       CLEAR     63  28  27 W14G23    30.18S                  
FORT BRIDGER   NOT AVBL                                               
ROCK SPRINGS   CLEAR     65  33  30 W15       30.12S                  
DIXON          NOT AVBL                                               
RAWLINS        CLEAR     70  29  21 W20G31    30.07S                  
SARATOGA       FAIR      61  32  33 W8        30.13R                  
LARAMIE        CLEAR     69  30  23 W21G29    30.08S                  
CHEYENNE       CLEAR     73  32  22 NW10      29.99R                  
TORRINGTON     CLEAR     66  59  78 N8        29.78R                  
PINE BLUFFS    FAIR      64  50  59 W7        29.89S                  

$$